Home   Weather   Kirkenes   Past weeks

Flag for Norway Past Weather in Kirkenes, Norway — Yesterday and Last 2 Weeks

Now
51 °F

Cool.


Feels Like: 49 °F
Forecast: 48 / 51 °F
Wind: 7 mph from Southeast

Location: Kirkenes Lufthavn

Current Time: Sep 28, 2016 at 5:30:57 AM

Latest Report: Sep 28, 2016 at 4:00 AM


Visibility: N/A

Pressure: 29.84 "Hg

Humidity: 95%

Dew Point: 50 °F

Location of KirkenesLocation

Past Weather in Kirkenes — Graph

°F

Kirkenes Temperature Yesterday

Maximum temperature yesterday: 52 °F (at 2:00 PM)
Minimum temperature yesterday: 49 °F (at 8:00 AM)
Average temperature yesterday: 51 °F

High & Low Weather Summary for the Past Weeks

 TemperatureHumidityPressure
High58 °F (Sep 14, 1:00 PM)100% (Sep 26, 4:00 AM)30.34 "Hg (Sep 26, 4:00 AM)
Low36 °F (Sep 18, 5:00 AM)60% (Sep 18, 3:00 PM)29.84 "Hg (Sep 28, 4:00 AM)
Average47 °F88%30.13 "Hg
* Reported Sep 13 4:00 AM — Sep 28 4:00 AM, Kirkenes, Weather by CustomWeather, © 2016

Note: Actual official high and low records may vary slightly from our data, if they occured in-between our weather recording intervals... More about our weather records

Advertising

Kirkenes Weather History for the Previous 24 Hours

Scroll right to see more
 ConditionsComfort  
Time TempWeatherWind HumidityBarometerVisibility
4:00 AM
Wed, Sep 28
51 °FCool.7 mph95%29.84 "HgN/A
3:00 AM52 °FCool.8 mph91%29.86 "HgN/A
2:00 AM52 °FCool.8 mph92%29.88 "HgN/A
1:00 AM52 °FCool.8 mph92%29.90 "HgN/A
12:00 AM52 °FCool.6 mph89%29.92 "HgN/A
11:00 PM
Tue, Sep 27
52 °FCool.7 mph93%29.94 "HgN/A
10:00 PM52 °FCool.7 mph93%29.96 "HgN/A
9:00 PM51 °FCool.7 mph94%30.00 "HgN/A
8:00 PM51 °FCool.5 mph97%30.02 "HgN/A
7:00 PM51 °FCool.5 mph94%30.05 "HgN/A
6:00 PM51 °FCool.6 mph94%30.07 "HgN/A
5:00 PM51 °FCool.5 mph93%30.09 "HgN/A
4:00 PM52 °FCool.6 mph90%30.11 "HgN/A
3:00 PM52 °FCool.5 mph89%30.12 "HgN/A
2:00 PM52 °FCool.6 mph87%30.14 "HgN/A
1:00 PM52 °FCool.6 mph87%30.16 "HgN/A
12:00 PM51 °FCool.7 mph89%30.17 "HgN/A
11:00 AM50 °FCool.6 mph92%30.18 "HgN/A
10:00 AM50 °FCool.6 mph93%30.19 "HgN/A
9:00 AM49 °FCool.6 mph95%30.18 "HgN/A
8:00 AM49 °FCool.6 mph95%30.19 "HgN/A
7:00 AM49 °FCool.3 mph97%30.19 "HgN/A
6:00 AM49 °FCool.3 mph96%30.19 "HgN/A
5:00 AM50 °FCool.3 mph92%30.20 "HgN/A
Weather by CustomWeather, © 2016

See weather overviewHow to use our weather pages